Location: Lango�lan
(48.1202°N, 3.2340°W)
Time: 13:45:49
(UTC+00:00)

Cosmos 2228 - Pass Details

Date: 23 October 2019
Orbit: 588 x 620 km, 82.5° (Epoch: 20 November)

Event Time Altitude Azimuth Distance (km) Brightness Sun altitude
Rises 03:52:53 0° 356° (N) 2,845 6.6 -28.9°
Reaches altitude 10° 03:55:13 10° 4° (N) 1,935 5.8 -28.6°
Maximum altitude 03:59:15 40° 75° (ENE) 875 4.2 -27.9°
Drops below altitude 10° 04:03:14 10° 146° (SE) 1,912 5.8 -27.3°
Sets 04:05:32 0° 153° (SSE) 2,807 6.6 -26.9°
